This is the latest recevied weather packets stored in our database for station/object KC3ULW-13. If no packets are shown the sender has not sent any weather packets the latest 10 day(s).
| Time | Temp. | Humidity | Pressure | Rain* | Wind** | Luminosity | Snow |
|---|---|---|---|---|---|---|---|
| 1777762016 | 6.67° C | 67% | 1018.4 hPa | 0 mm | - | 49 W/m² | - |
| 1777761713 | 6.67° C | 67% | 1018.4 hPa | 0 mm | - | 49 W/m² | - |
| 1777761410 | 6.67° C | 67% | 1018.2 hPa | 0 mm | - | 51 W/m² | - |
| 1777761108 | 6.67° C | 67% | 1018.4 hPa | 0 mm | - | 50 W/m² | - |
| 1777760806 | 6.67° C | 67% | 1018.4 hPa | 0 mm | - | 49 W/m² | - |
| 1777760502 | 6.67° C | 68% | 1018.4 hPa | 0 mm | - | 52 W/m² | - |
| 1777760198 | 6.67° C | 68% | 1018.4 hPa | 0 mm | - | 58 W/m² | - |
| 1777759895 | 6.67° C | 68% | 1018.3 hPa | 0 mm | - | 53 W/m² | - |
| 1777759591 | 6.67° C | 68% | 1018.2 hPa | 0 mm | - | 49 W/m² | - |
| 1777759287 | 6.67° C | 68% | 1018.2 hPa | 0 mm | - | 51 W/m² | - |
| 1777758985 | 6.67° C | 68% | 1018.1 hPa | 0 mm | - | 87 W/m² | - |
| 1777758682 | 6.67° C | 67% | 1018.1 hPa | 0 mm | - | 83 W/m² | - |
| 1777758379 | 6.67° C | 68% | 1018.1 hPa | 0 mm | - | 88 W/m² | - |
| 1777758076 | 6.67° C | 68% | 1018.1 hPa | 0 mm | - | 100 W/m² | - |
| 1777757774 | 7.22° C | 67% | 1018 hPa | 0 mm | - | 114 W/m² | - |
| 1777757470 | 7.22° C | 68% | 1018 hPa | 0 mm | - | 144 W/m² | - |
| 1777757169 | 6.67° C | 67% | 1017.9 hPa | 0 mm | - | 170 W/m² | - |
| 1777756867 | 7.22° C | 65% | 1017.8 hPa | 0 mm | - | 164 W/m² | - |
| 1777756562 | 7.22° C | 67% | 1017.6 hPa | 0 mm | - | 161 W/m² | - |
| 1777756259 | 7.22° C | 66% | 1017.8 hPa | 0 mm | - | 186 W/m² | - |
| 1777755956 | 7.78° C | 67% | 1018 hPa | 0 mm | - | 197 W/m² | - |
| 1777755654 | 7.78° C | 66% | 1017.8 hPa | 0 mm | - | 199 W/m² | - |
| 1777755350 | 7.22° C | 67% | 1017.8 hPa | 0 mm | - | 207 W/m² | - |
| 1777755047 | 7.22° C | 67% | 1017.7 hPa | 0 mm | - | 174 W/m² | - |
| 1777754744 | 7.22° C | 66% | 1017.7 hPa | 0 mm | - | 171 W/m² | - |
* Rain latest hour (hover to see other rain measurements)
** Current wind speed in m/s (hover to see current wind gust speed)